This is the latest recevied weather packets stored in our database for station/object N0ZJT. If no packets are shown the sender has not sent any weather packets the latest 10 day(s).
| Time | Temp. | Humidity | Pressure | Rain* | Wind** | Luminosity | Snow |
|---|---|---|---|---|---|---|---|
| 1777041890 | 10.56° C | 68% | 970 hPa | 0 mm | - | - | - |
| 1777040930 | 10.56° C | 69% | 969.8 hPa | 0 mm | - | - | - |
| 1777040090 | 10.56° C | 69% | 969.8 hPa | 0 mm | - | - | - |
| 1777039130 | 10° C | 70% | 969.6 hPa | 0 mm | - | - | - |
| 1777038290 | 10° C | 72% | 969.3 hPa | 0 mm | - | - | - |
| 1777037330 | 10° C | 72% | 969 hPa | 0 mm | - | - | - |
| 1777036490 | 9.44° C | 73% | 968.7 hPa | 0 mm | - | - | - |
| 1777035530 | 9.44° C | 73% | 968.7 hPa | 0 mm | - | - | - |
| 1777034690 | 9.44° C | 73% | 968.7 hPa | 0 mm | - | - | - |
| 1777033730 | 8.89° C | 74% | 968.5 hPa | 0 mm | - | - | - |
| 1777032890 | 8.89° C | 74% | 968.6 hPa | 0 mm | - | - | - |
| 1777031930 | 9.44° C | 73% | 968.1 hPa | 0 mm | - | - | - |
| 1777031090 | 9.44° C | 75% | 967.8 hPa | 0 mm | - | - | - |
| 1777030130 | 10° C | 76% | 967.2 hPa | 0 mm | - | - | - |
| 1777029290 | 10.56° C | 75% | 966.9 hPa | 0 mm | - | - | - |
| 1777028330 | 10.56° C | 76% | 966.8 hPa | 0 mm | - | - | - |
| 1777027490 | 11.11° C | 76% | 966.6 hPa | 0 mm | - | - | - |
| 1777026530 | 11.67° C | 73% | 966.7 hPa | 0 mm | - | - | - |
| 1777025690 | 12.22° C | 76% | 966.4 hPa | 0 mm | - | - | - |
| 1777024730 | 12.78° C | 76% | 965.8 hPa | 0 mm | - | - | - |
| 1777023890 | 13.33° C | 77% | 965.6 hPa | 0 mm | - | - | - |
| 1777022930 | 14.44° C | 86% | 965.8 hPa | 0 mm | - | - | - |
| 1777022090 | 14.44° C | 88% | 965.6 hPa | 0 mm | - | - | - |
| 1777021130 | 14.44° C | 88% | 965.5 hPa | 0 mm | - | - | - |
| 1777020290 | 14.44° C | 88% | 965.4 hPa | 0 mm | - | - | - |
* Rain latest hour (hover to see other rain measurements)
** Current wind speed in m/s (hover to see current wind gust speed)